Location: Unspecified
(0.0000°N, 0.0000°E)
Time: 00:36:31
(UTC+00:00)

deb Kosmos-1275 - Pass Details

Date: 07 March 2026
Orbit: 924 x 993 km, 82.9° (Epoch: 14 April)

Event Time Altitude Azimuth Distance (km) Brightness Sun altitude
Rises 18:42:22 0° 360° (N) 3,604 ? -7.8°
Reaches altitude 10° 18:44:50 10° 2° (N) 2,671 ? -8.4°
Maximum altitude 18:50:56 77° 87° (E) 994 ? -10.0°
Drops below altitude 10° 18:57:11 10° 172° (S) 2,729 ? -11.5°
Sets 18:59:43 0° 174° (S) 3,686 ? -12.1°
